Погода в Выборге

Погода в Выборге : погода сейчас, прогноз погоды и архив. Всё, что Вы хотите узнать о погоде в Выборге!

Хотите узнать прогноз погоды в Выборге? Тогда Вам сюда: Погода в Выборге

Поиск расширенной информации на нашем сайте:

Другие новости

Новости СМИ2

Главная страница сайта

Новости сайта

03.07.2017

Напоминаем, что на нашем специализированном сайте Метеоцентр.Азия вы можете получить высокодетализированные автоматические прогнозы погоды по пунктам России, СНГ и мира в авиационном формате (включающие направление и скорость ветра, видимость, явления погоды, количество и форму облачности, нижнюю и верхнюю границу облачности).


Погода в Выборге - сегодня

Время (UTC), дата Ветер
(°,м/с) 
Видим.   Явления Облачность Т
(°С)
Тd
(°С)
f(%) Тe
(°С)
Pmin
(гПа)
dP
(гПа)
Po
(мм)
O2
(г/м3)
Тmin Tmax R s Состояние
почвы
03 10.10.18 240 (ЮЗ) 6{13}  10 км  {ливн. осадки}  10/10 420 м кучево-дожд. 
[Cb cap]
+11.7 +9.9 89 +11  1007.9  755  290  +11       
06 10.10.18 250 (З) 6{10}  20000 м  {ливн. осадки}  10/10 420 м кучево-дожд. 
[Cb cap]
+11.7 +9.9 89 +11  1008.6  0.7  755  290  +11    0.8    мокрая 
09 10.10.18 290 (З) 20000 м    10/10 420 м кучево-дожд. 
[Cb cap]
+12.6 +10.3 86 +13  1010  1.4  756  289           
12 10.10.18 320 (СЗ) 20000 м    8/4 600 м верхняя 
[Cu med, cong|Ci fib]
+15.2 +8.5 64 +15  1015.5  3.2  761  289           
15 10.10.18 340 (С) 20000 м    8/0 верхняя 
[Ci fib]
+13.2 +6.8 65 +14  1018.2  2.6  762  292           
21 10.10.18 330 (СЗ) 10 км    ясно 
+5.7 +4.3 91 +7  1025.6  3.1  768  302           
00 11.10.18 тихо ()   10 км    ясно 
+3.6 +2.3 91 +4  1026.3  0.7  769  305           
03 11.10.18 тихо ()   10 км    ясно 
+3.5 +3 97 +4  1028.7  2.4  770  306  +3.4         
06 11.10.18 тихо ()   20000 м    ясно 
+3.8 +3.3 97 +4  1030.1  1.3  771  306  +2.8         
09 11.10.18 170 (Ю) 20000 м    ясно 
+9.3 +7 86 +10  1031.5  1.5  772  300           
12 11.10.18 200 (Ю) 20000 м    8/0 верхняя 
[Ci fib]
+11.7 +11.4 98 +13  1031.4  -0.1  772  296           
15 11.10.18 210 (ЮЗ) 20000 м    6/1 600 м кучево-дожд., верхняя 
[Cb calv|Ci fib]
+10.7 +9.1 90 +10  1031.4  772  298           
21 11.10.18 210 (ЮЗ) 10 км    10/10 600 м кучево-дожд. 
[Cb cap]
+9.9 +9.3 96 +8  1031.3  772  299           
00 12.10.18 220 (ЮЗ) 10 км    10/10 600 м кучево-дожд. 
[Cb cap]
+10.4 +9.8 96 +9  1030.7  -0.6  772  298           
00 13.10.18 210 (ЮЗ) 0500 м  туман  ?/?  
+10.7 +10.5 99 +11  1025.7  -1.1  768  296           
09 13.10.18 230 (ЮЗ) 10 км    9/0 средняя 
[Ac As]
+12.3 +10.8 91 +13  1024  -0.2  767  294           
12 13.10.18 210 (ЮЗ) 10 км    10/0 средняя 
[Ac As]
+12.2 +10.5 89 +12  1024.5  0.5  767  294           
21 13.10.18 190 (Ю) 2000 м  дымка  ясно 
+10.3 +9.5 95 +10  1024.1  767  296           
00 14.10.18 220 (ЮЗ) 2000 м  дымка  ясно 
+11 +10.2 95 +11  1023.4  -0.7  766  295           
09 14.10.18 200 (Ю) 4000 м  дымка  ясно 
+12.4 +10.5 88 +12  1023.6  -0.3  767  294           
21 14.10.18 220 (ЮЗ) 4000 м  дымка  ясно 
+12.2 +10.7 91 +13  1022.3  766  293           
00 15.10.18 210 (ЮЗ) 10 км    ясно 
+11.3 +9.7 90 +10  1022.5  0.2  766  295           
03 15.10.18 210 (ЮЗ) 10 км    ясно 
+11 +9.6 91 +10  1020.8  -1.7  764  294  +10.9         
09 15.10.18 230 (ЮЗ) 7-10{11}  10 км    ясно 
+12.8 +10.3 85 +13  1020.4  0.3  764  292           
15 15.10.18 210 (ЮЗ) 6{11}  20000 м    ясно 
+12 +9.6 85 +11  1019.9  -0.2  764  293           
Время (UTC), дата Ветер
(°,м/с) 
Видим.   Явления Облачность Т
(°С)
Тd
(°С)
f(%) Тe
(°С)
Pmin
(гПа)
dP
(гПа)
Po
(мм)
O2
(г/м3)
Тmin Tmax R s Состояние
почвы

Для получения пояснительной информации подведите курсор к названию столбца.

ПОГОДА в Выборге - архив

Всё, что Вы хотите узнать о погоде в Выборге - удобно и подробно!

Выберите нужную дату (начиная с 1 января 2015* года) и нажмите кнопку "Найти".
Будут отображены архивные сводки погоды по пункту Выборг, начиная с указанной даты.


Отображать данные в формате CSV (для использования в таблицах Excel)


Внимание! Наш архив погоды предназначен исключительно для личного некоммерческого использования в познавательных целях. Если Вам необходимы официальные справки о состоянии погоды (для производственных, юридических, коммерческих и т.п. целей), обращайтесь в органы Росгидромета.

*Примечание: данная дата относится к архиву по метеостанциям СССР (Россия, СНГ, Балтия).
Архив по метеостанциям Зарубежной Европы и Азии (кроме Китая) хранится 10 дней, по другим регионам земного шара (Китай, Африка, Америка, Австралия, Океания) - 1 день.

Выборг - район местоположения метеостанции


Название, широта, долгота, высота метеостанции:
Выборг 60.7°ш. 28.7°д. 13 м над ур. моря [Российская Федерация]

Дополнительная информация

В oтличие oт бoльшинства пoгoдных сайтoв мы публикуем пoдрoбную метеoинфoрмацию в детальнoм прoфессиoнальнoм фoрмате.

Характеристики температуры и влажнoсти вoздуха измеряются на высoте 2 м в тени вдали oт зданий и деревьев.
Скoрoсть ветра измеряется на высoте 10 м (на урoвне рoста челoвека скoрoсть ветра ниже в 1.5-2 раза). Если метеoстанция нахoдится в гoрoде или в лесу, тo скoрoсть ветра занижена на 2-4 м/с пo сравнению с oткрытым местoм. Скoрoсть ветра над акватoриями крупных рек и oзёр, а также на вершинах хoлмoв на 2-5 м/с выше, чем в oбычных услoвиях.
Атмoсфернoе давление в разных тoчках местнoсти мoжет значительнo oтличаться oт давления на метеoстанции, в зависимoсти oт услoвий рельефа (при пoдъёме на 10 м давление пoнижается примернo на 1 мм рт.ст.).